Flag for Switzerland Weather past 2 weeks in Lancy, Geneva, Switzerland

Now
37 °F

Passing clouds.


Feels Like: 31 °F
Forecast: 35 / 42 °F
Wind: 9 mph from Northeast

Location: Geneva Cointrin Airport

Current Time: Mar 4, 2015 at 10:00:13 PM

Latest Report: Mar 4, 2015 at 9:20 PM


Visibility: N/A

Pressure: 30.39 "Hg

Humidity: 60%

Dew point: 25 °F

Location of LancyLocation

Historic Weather in Lancy — Graph

°F

Lancy temperature yesterday

Maximum temperature yesterday: 54 °F (at 1:20 PM)
Minimum temperature yesterday: 36 °F (at 5:50 AM)
Average temperature yesterday: 46 °F

Past Weeks' High & Low Weather Summary

 TemperatureHumidityPressure
High54 °F (Feb 20, 1:50 PM)100% (Feb 19, 10:50 PM)30.63 "Hg (Feb 19, 10:50 PM)
Low27 °F (Feb 20, 4:20 AM)26% (Feb 20, 2:20 PM)29.59 "Hg (Feb 21, 7:20 AM)
Average39 °F78%30.06 "Hg
* Reported Feb 17 8:20 PM — Mar 4 8:50 PM, Lancy, Weather by CustomWeather, © 2015

Note: Actual official high and low records may vary slightly from our data, if they occured in-between our weather recording intervals... More about our weather records

Advertising

Lancy weather history for previous 24 hours

 ConditionsComfort  
Time TempWeatherWind HumidityBarometerVisibility
8:50 PM
Wed, Mar 4
37 °FPassing clouds.12 mph60%30.39 "HgN/A
8:20 PM39 °FPassing clouds.10 mph52%30.39 "HgN/A
7:50 PM37 °FPassing clouds.9 mph60%30.39 "HgN/A
7:20 PM39 °FPassing clouds.8 mph61%30.36 "HgN/A
6:50 PM39 °FPassing clouds.5 mph70%30.36 "HgN/A
6:20 PM41 °FScattered clouds.9 mph66%30.33 "HgN/A
5:50 PM41 °FScattered clouds.9 mph66%30.33 "HgN/A
5:20 PM43 °FScattered showers. Broken clouds.8 mph49%30.33 "HgN/A
4:50 PM41 °FScattered showers. Partly sunny.3 mph61%30.33 "HgN/A
4:20 PM43 °FSnow flurries. Partly sunny.9 mph61%30.33 "HgN/A
3:50 PM45 °FScattered showers. Partly sunny.8 mph46%30.30 "HgN/A
3:20 PM45 °FHail. Partly sunny.13 mph49%30.30 "HgN/A
2:50 PM45 °FScattered showers. Partly sunny.10 mph46%30.30 "HgN/A
2:20 PM45 °FScattered showers. Partly sunny.6 mph46%30.30 "HgN/A
1:50 PM45 °FScattered showers. Scattered clouds.6 mph53%30.33 "HgN/A
1:20 PM43 °FScattered clouds.7 mph61%30.33 "HgN/A
12:50 PM43 °FPartly sunny.6 mph66%30.36 "HgN/A
12:20 PM43 °FPartly sunny.3 mph66%30.36 "HgN/A
11:50 AM43 °FPartly sunny.2 mph66%30.33 "HgN/A
11:20 AM41 °FPartly sunny.3 mph76%30.33 "HgN/A
10:50 AM41 °FPartly sunny.5 mph76%30.33 "HgN/A
10:20 AM41 °FPartly sunny.5 mph76%30.33 "HgN/A
9:50 AM39 °FPartly sunny.6 mph81%30.33 "HgN/A
9:20 AM39 °FPartly sunny.3 mph87%30.33 "HgN/A
8:50 AM39 °FPartly sunny.5 mph87%30.30 "HgN/A
8:20 AM37 °FBroken clouds.3 mph93%30.30 "HgN/A
7:50 AM37 °FLight rain. Partly sunny.5 mph100%30.30 "HgN/A
7:20 AM39 °FLight rain. Partly sunny.7 mph93%30.30 "HgN/A
6:50 AM39 °FLight rain. Passing clouds.9 mph93%30.27 "HgN/A
6:20 AM41 °FLight rain. Passing clouds.2 mph93%30.27 "HgN/A
5:50 AM41 °FSprinkles. Partly cloudy.3 mph93%30.27 "HgN/A
5:20 AM41 °FSprinkles. Partly cloudy.3 mph100%30.27 "HgN/A
4:50 AM43 °FLight rain. Mostly cloudy.3 mph93%30.24 "HgN/A
4:20 AM43 °FLight rain. Mostly cloudy.3 mph93%30.24 "HgN/A
3:50 AM45 °FLight rain. Mostly cloudy.3 mph81%30.24 "HgN/A
3:20 AM45 °FLight rain. Mostly cloudy.9 mph81%30.24 "HgN/A
2:50 AM45 °FLight rain. Mostly cloudy.10 mph81%30.24 "HgN/A
1:50 AM46 °FLight rain. Passing clouds.8 mph71%30.24 "HgN/A
1:20 AM46 °FLight rain. Partly cloudy.7 mph66%30.24 "HgN/A
12:50 AM46 °FLight rain. Partly cloudy.6 mph66%30.24 "HgN/A
12:20 AM46 °FSprinkles. Mostly cloudy.6 mph62%30.24 "HgN/A
11:50 PM
Tue, Mar 3
45 °FPassing clouds.5 mph66%30.24 "HgN/A
11:20 PM45 °FPassing clouds.5 mph61%30.24 "HgN/A
10:50 PM48 °FPassing clouds.9 mph50%30.24 "HgN/A
10:20 PM46 °FClear.7 mph53%30.24 "Hg10 mi
Weather by CustomWeather, © 2015

See weather overviewHow to use our weather pages